Wind_Speed
15 17 18 18 18 21 22 24 24 23 21 19 18 16 16 17 20 21 20 22 25 26 22 21 24 29 27 18 8 6 7 7 10 7 7 8 8 9 10 9 8 7 5
15 16 15 16 18 21 23 24 24 24 22 18 16 14 14 14 15 18 20 20 23 26 25 21 22 27 28 26 16 7 7 9 12 14 15 12 11 11 11 10 9 7 5
12 12 13 15 18 21 23 24 24 24 23 19 16 13 12 12 13 15 18 18 19 22 24 23 20 22 28 29 22 14 5 4 5 5 7 8 10 11 11 12 10 10 8
9 10 11 14 18 21 23 24 24 24 23 20 16 12 10 11 11 13 15 16 16 18 21 23 22 19 23 27 25 16 9 4 3 3 4 4 5 6 8 8 9 8 6
7 8 10 14 18 20 21 22 23 23 21 20 17 13 9 8 12 15 13 14 16 15 17 20 22 21 14 22 23 20 14 9 4 1 1 2 3 3 4 6 7 4 4
5 5 8 13 17 19 21 21 22 21 20 19 16 14 12 9 15 15 13 11 13 14 15 17 21 22 20 16 21 19 17 14 10 6 5 4 5 4 3 4 5 5 6
3 3 7 11 15 17 19 20 20 21 20 18 16 14 13 11 15 18 13 10 13 13 14 16 18 22 24 17 19 20 17 16 13 10 7 6 4 3 2 3 3 4 6
4 1 5 10 13 16 17 19 20 20 21 20 18 16 14 13 15 18 15 11 10 11 13 13 15 19 22 22 15 18 20 17 16 13 10 9 7 5 2 1 2 3 6
6 2 3 7 11 13 14 16 18 20 20 22 21 20 18 14 14 16 17 12 9 10 12 11 12 15 18 20 17 13 19 17 15 14 12 9 8 6 3 3 5 3 7
7 4 2 5 8 11 14 16 17 19 21 21 22 23 21 17 13 18 19 15 12 10 10 10 10 11 14 17 16 16 14 17 15 13 13 13 13 11 7 4 5 4 7
10 6 3 3 6 10 12 14 15 16 17 19 21 23 23 23 19 21 19 17 15 13 11 10 10 8 10 14 13 13 14 13 14 14 14 15 14 13 10 7 7 7 4
11 8 4 3 5 8 10 12 13 15 16 18 20 22 23 24 25 22 21 20 16 13 10 9 9 8 8 11 12 12 10 11 14 14 14 16 15 13 12 9 9 8 8
13 10 6 3 3 6 8 10 12 14 16 18 20 22 24 25 29 28 26 22 17 14 10 8 7 6 5 8 10 9 10 12 11 14 15 15 15 13 11 10 11 12 11
14 11 8 4 2 3 6 9 11 13 15 18 20 22 24 27 31 32 31 28 21 16 10 6 2 2 4 6 7 9 11 12 13 15 15 14 14 14 11 10 9 11 11
16 12 8 5 3 1 4 7 10 12 14 17 19 21 23 25 26 25 27 29 23 20 8 1 3 4 3 4 7 10 11 10 12 14 13 14 14 15 14 10 9 10 12
16 13 10 6 3 1 2 5 8 10 10 12 14 16 18 17 19 22 26 29 24 17 11 5 5 4 4 5 6 9 13 13 12 12 14 13 14 15 15 13 10 9 11
17 14 11 8 5 2 1 2 4 7 9 10 11 13 14 17 17 20 25 27 23 14 11 7 5 4 4 4 5 7 12 13 12 12 12 13 13 13 15 14 12 9 8
18 16 12 10 7 5 3 4 5 6 6 7 9 11 13 14 16 19 21 21 21 16 13 10 6 4 3 3 4 4 9 10 10 12 12 12 13 14 13 14 13 9 8
18 16 13 11 8 6 5 5 6 7 8 9 7 9 10 11 12 15 18 21 24 22 15 11 9 4 3 2 2 2 5 7 8 10 13 13 12 14 14 12 12 11 7
20 19 16 13 11 9 8 8 8 8 8 9 11 10 9 8 9 12 15 17 19 21 19 14 10 7 3 1 2 1 0 3 5 6 9 12 11 12 13 11 10 11 9
19 18 17 15 13 12 11 10 11 9 8 8 10 11 11 10 10 11 11 13 15 16 18 17 13 10 6 2 2 2 2 2 2 3 5 8 11 9 10 11 11 10 9
22 20 19 16 15 15 13 14 13 12 10 9 8 10 11 10 8 8 8 9 11 13 12 14 16 13 10 6 3 4 4 4 3 1 1 2 6 9 8 10 11 9 7
24 22 20 19 17 16 16 16 15 14 12 11 10 9 10 10 8 7 7 7 8 9 11 10 10 13 13 11 7 4 6 7 6 5 3 1 2 6 7 7 10 9 6
22 22 21 18 19 18 18 17 16 15 14 12 11 11 11 11 9 9 8 8 7 7 8 10 10 9 10 11 10 6 6 8 8 8 7 4 2 2 5 5 6 9 6
24 22 21 18 18 18 18 17 16 15 15 14 13 12 12 12 11 10 10 10 10 7 7 8 8 9 8 8 9 9 5 6 9 10 9 7 5 3 2 4 4 5 5
21 21 21 19 19 18 18 18 16 15 14 14 14 14 13 12 12 12 12 12 12 11 9 8 9 8 8 8 8 8 9 6 7 12 12 10 8 7 3 1 1 2 5
Wind_Direction
336 341 340 343 351 348 347 344 342 340 329 311 315 330 343 356 5 10 10 13 15 16 17 19 9 8 15 14 347 312 256 271 250 273 270 253 230 227 224 218 214 210 229
336 341 344 351 354 351 350 348 348 348 343 331 312 316 331 342 356 7 10 14 14 15 18 15 16 5 11 14 11 332 276 271 278 277 270 255 247 240 233 233 230 239 245
331 341 346 355 357 356 353 352 352 351 347 345 332 320 328 337 346 357 10 12 17 17 17 20 13 9 8 11 13 2 350 303 272 260 257 242 237 237 233 236 238 244 252
329 339 349 359 2 359 357 355 356 355 349 350 348 337 332 337 341 347 1 6 16 17 19 23 19 13 8 8 16 19 21 358 304 243 238 242 227 226 224 229 230 231 231
322 338 354 5 6 3 358 358 359 356 352 352 353 350 342 345 351 348 349 356 3 11 15 18 26 23 15 12 15 19 24 32 43 78 147 178 153 148 182 190 188 190 178
307 337 0 10 11 6 2 1 2 359 358 356 358 1 360 356 6 0 347 347 351 1 6 13 16 23 26 19 20 24 25 34 46 62 87 107 115 125 153 169 174 170 132
271 339 13 15 14 10 7 6 6 6 6 5 4 7 9 1 14 7 347 343 344 349 358 4 14 16 24 27 18 25 25 35 43 49 66 81 90 101 156 166 145 157 155
222 24 23 19 18 15 12 11 13 14 13 14 11 9 9 9 24 11 359 352 347 349 348 0 4 12 25 25 19 12 22 27 38 43 48 57 63 57 70 170 154 134 147
200 140 37 27 22 20 19 19 21 22 22 21 18 13 11 13 30 11 360 356 348 348 341 1 360 8 22 24 26 26 13 30 32 37 39 46 52 47 70 147 144 105 128
190 168 89 34 25 28 23 24 28 30 31 29 26 23 20 17 22 10 4 355 347 345 339 357 1 7 24 25 26 28 20 20 28 32 39 46 50 52 74 106 127 161 138
187 178 164 52 28 33 31 30 29 32 34 35 33 29 27 22 20 13 10 354 350 344 337 342 1 13 29 28 26 26 24 22 24 29 38 48 50 56 65 73 85 92 125
186 179 173 99 37 33 31 33 29 28 27 31 32 31 29 24 23 17 10 2 353 340 334 334 359 11 30 28 30 33 34 37 29 31 37 46 47 55 56 65 72 65 96
187 184 170 138 59 31 27 26 27 25 22 25 25 25 23 20 23 14 6 1 354 337 321 325 352 8 26 36 39 42 45 51 33 35 38 37 41 46 42 49 63 60 84
189 186 179 165 114 25 13 14 19 23 19 19 17 18 19 19 20 7 357 355 359 348 309 305 318 14 46 40 51 59 53 49 45 41 39 39 36 40 49 44 54 73 91
191 191 190 180 154 16 8 5 10 16 20 13 10 11 10 20 14 3 359 2 2 353 19 66 129 148 127 97 71 69 72 67 58 45 39 39 37 38 44 53 69 84 100
196 196 196 197 192 177 359 357 6 12 17 10 7 4 7 11 8 6 5 8 5 14 17 60 80 97 86 75 69 66 66 60 54 46 42 38 37 38 40 46 65 97 111
198 202 202 200 210 220 267 355 359 4 0 2 4 5 5 2 8 12 12 11 8 14 18 40 74 76 78 74 63 55 62 56 46 40 46 39 38 41 41 44 49 81 117
202 204 208 212 212 228 266 310 335 360 9 359 355 2 5 3 4 12 17 14 24 24 27 34 42 77 92 87 71 64 71 75 61 44 47 47 40 41 41 38 40 59 98
206 212 217 225 231 247 269 294 315 335 345 350 354 354 0 3 4 8 16 18 25 29 27 27 29 40 84 119 89 34 57 67 64 48 43 45 41 41 42 36 36 48 85
209 214 222 228 241 251 267 285 299 313 328 335 338 346 358 357 12 10 14 23 26 30 30 26 25 22 18 100 180 181 80 85 79 62 49 44 42 44 37 35 33 49 69
217 223 228 232 244 258 269 278 285 296 306 319 324 329 339 353 1 6 2 12 24 29 32 32 25 19 14 319 250 221 219 204 109 91 62 49 47 52 46 34 37 48 62
219 224 233 239 244 258 267 274 281 288 293 299 304 311 318 327 338 346 357 356 7 16 28 31 30 29 18 4 295 255 243 235 214 172 102 38 44 42 42 41 33 45 61
220 225 230 240 249 256 264 272 275 279 281 286 291 294 296 302 312 321 333 346 349 356 3 15 29 25 22 17 356 295 249 240 239 231 217 204 39 42 43 50 34 34 61
229 234 236 237 246 255 262 267 270 273 276 279 281 282 284 288 295 299 307 319 328 336 337 350 1 14 18 17 17 351 291 253 242 238 234 226 191 48 37 40 39 29 41
228 232 240 243 250 257 261 263 266 268 270 271 271 271 272 275 279 284 290 299 305 312 320 323 335 345 353 12 12 9 343 276 251 244 242 231 217 203 53 39 34 38 28
232 237 242 244 249 255 260 262 262 262 263 264 265 267 268 266 268 274 280 287 292 298 304 307 307 314 326 335 356 4 359 328 260 243 240 235 221 216 226 189 36 54 30
Height
1533 1530 1528 1525 1521 1518 1513 1509 1504 1499 1496 1493 1491 1489 1487 1484 1480 1477 1473 1469 1464 1459 1455 1451 1448 1443 1436 1432 1431 1430 1430 1430 1432 1430 1430 1432 1433 1433 1434 1435 1437 1439 1438
1531 1527 1526 1523 1519 1516 1511 1506 1501 1497 1493 1490 1487 1485 1484 1482 1480 1476 1473 1470 1466 1461 1456 1452 1448 1443 1438 1435 1431 1431 1430 1428 1425 1426 1430 1431 1430 1433 1434 1435 1437 1437 1437
1527 1525 1524 1521 1518 1513 1510 1504 1499 1495 1492 1488 1485 1483 1482 1480 1478 1476 1473 1470 1467 1464 1459 1454 1450 1446 1441 1436 1430 1428 1425 1425 1426 1427 1431 1428 1428 1429 1431 1433 1433 1437 1436
1525 1523 1521 1518 1515 1511 1507 1502 1498 1494 1491 1487 1484 1481 1480 1478 1477 1475 1473 1470 1468 1465 1461 1457 1452 1448 1444 1439 1435 1431 1427 1427 1426 1427 1426 1426 1425 1426 1429 1429 1433 1435 1434
1523 1521 1520 1516 1513 1510 1507 1502 1497 1493 1490 1486 1483 1481 1478 1477 1475 1474 1472 1469 1467 1465 1463 1459 1454 1451 1447 1443 1437 1433 1431 1428 1426 1426 1425 1425 1425 1426 1428 1429 1433 1432 1432
1521 1520 1519 1516 1514 1511 1507 1503 1498 1494 1490 1486 1483 1480 1478 1476 1475 1473 1471 1469 1467 1464 1462 1459 1455 1452 1447 1445 1441 1437 1433 1429 1427 1427 1426 1426 1426 1426 1429 1430 1430 1431 1431
1520 1520 1518 1516 1512 1510 1507 1503 1499 1494 1490 1486 1483 1480 1478 1476 1475 1473 1470 1469 1467 1464 1462 1459 1456 1453 1448 1444 1443 1439 1436 1433 1430 1428 1428 1427 1427 1427 1430 1430 1429 1430 1430
1518 1518 1517 1515 1512 1510 1508 1504 1499 1495 1490 1487 1483 1481 1478 1475 1474 1473 1470 1469 1467 1465 1462 1460 1457 1454 1449 1447 1446 1442 1439 1435 1432 1432 1430 1429 1429 1430 1429 1430 1430 1430 1431
1515 1515 1516 1514 1512 1509 1506 1504 1500 1496 1492 1487 1484 1481 1478 1476 1474 1474 1469 1467 1466 1464 1462 1461 1459 1456 1452 1449 1447 1445 1442 1439 1437 1434 1433 1432 1431 1430 1430 1430 1430 1431 1431
1512 1513 1513 1512 1510 1509 1508 1505 1501 1497 1494 1490 1486 1483 1479 1476 1474 1473 1471 1467 1465 1463 1462 1461 1459 1456 1454 1452 1450 1447 1445 1442 1440 1438 1436 1433 1431 1430 1431 1432 1432 1432 1432
1507 1509 1511 1510 1510 1509 1507 1505 1504 1500 1497 1493 1489 1486 1482 1478 1474 1473 1471 1467 1464 1462 1460 1459 1459 1457 1456 1454 1451 1449 1448 1446 1444 1442 1439 1436 1434 1433 1434 1436 1434 1433 1434
1505 1507 1511 1509 1510 1508 1508 1506 1504 1501 1498 1495 1491 1488 1484 1480 1476 1473 1471 1469 1465 1462 1460 1458 1458 1458 1457 1455 1453 1451 1451 1448 1447 1445 1442 1440 1438 1438 1438 1438 1436 1435 1435
1501 1506 1509 1508 1508 1508 1508 1507 1505 1502 1499 1495 1492 1488 1485 1482 1477 1474 1470 1467 1463 1461 1459 1457 1458 1458 1458 1456 1455 1454 1452 1450 1450 1448 1446 1445 1443 1441 1440 1438 1436 1436 1436
1499 1502 1505 1506 1505 1506 1506 1506 1505 1503 1499 1496 1493 1489 1486 1482 1478 1476 1470 1465 1461 1458 1457 1457 1457 1457 1458 1458 1456 1455 1453 1452 1451 1449 1449 1448 1446 1443 1441 1439 1439 1439 1439
1496 1499 1502 1503 1503 1506 1505 1505 1503 1502 1500 1496 1493 1490 1487 1483 1483 1480 1473 1465 1461 1457 1454 1455 1457 1458 1458 1458 1457 1456 1456 1454 1452 1452 1451 1449 1448 1446 1443 1442 1442 1442 1443
1493 1497 1499 1500 1502 1502 1503 1504 1503 1501 1500 1498 1495 1493 1490 1487 1486 1481 1473 1467 1462 1458 1456 1455 1456 1457 1457 1458 1458 1457 1455 1454 1454 1454 1453 1451 1450 1448 1447 1445 1444 1445 1446
1487 1491 1494 1497 1501 1501 1499 1500 1502 1500 1499 1498 1496 1493 1491 1488 1485 1481 1475 1470 1464 1461 1458 1457 1457 1457 1458 1458 1459 1459 1456 1457 1457 1456 1454 1454 1453 1452 1450 1448 1447 1448 1449
1487 1489 1493 1494 1495 1498 1500 1498 1498 1498 1498 1498 1495 1493 1491 1489 1486 1482 1479 1475 1468 1464 1460 1458 1458 1458 1459 1460 1460 1461 1459 1459 1459 1460 1458 1456 1455 1453 1452 1451 1451 1452 1452
1484 1489 1492 1495 1496 1497 1498 1499 1497 1496 1495 1495 1495 1493 1492 1490 1486 1483 1480 1476 1471 1466 1464 1461 1460 1459 1460 1460 1461 1461 1461 1460 1461 1461 1459 1457 1457 1456 1455 1455 1455 1455 1455
1481 1483 1487 1490 1493 1494 1494 1495 1495 1494 1492 1493 1492 1491 1491 1490 1487 1483 1481 1479 1475 1471 1467 1465 1462 1461 1461 1461 1462 1463 1462 1463 1462 1462 1462 1461 1460 1459 1459 1460 1460 1458 1457
1477 1482 1484 1483 1487 1491 1493 1492 1493 1491 1490 1490 1490 1488 1487 1487 1486 1483 1481 1479 1477 1475 1471 1468 1465 1464 1462 1463 1463 1464 1463 1463 1464 1465 1464 1464 1464 1464 1464 1463 1459 1459 1459
1471 1474 1480 1482 1480 1483 1486 1487 1488 1487 1486 1486 1487 1486 1485 1485 1484 1483 1481 1479 1477 1476 1474 1471 1468 1466 1464 1463 1462 1462 1463 1463 1464 1464 1465 1466 1465 1464 1463 1462 1462 1461 1462
1458 1465 1468 1475 1477 1477 1479 1481 1482 1482 1482 1482 1482 1482 1482 1482 1482 1481 1480 1479 1477 1476 1474 1473 1471 1468 1466 1464 1462 1462 1462 1462 1463 1464 1466 1466 1466 1465 1464 1464 1465 1465 1464
1462 1465 1465 1464 1469 1472 1475 1475 1476 1476 1476 1476 1477 1477 1478 1478 1478 1478 1477 1476 1476 1474 1473 1472 1470 1469 1467 1465 1463 1462 1460 1461 1463 1464 1465 1466 1466 1465 1465 1465 1466 1465 1464
1448 1453 1460 1459 1462 1465 1468 1469 1469 1469 1470 1470 1471 1472 1473 1473 1474 1473 1473 1473 1473 1472 1471 1470 1469 1468 1467 1466 1464 1462 1461 1460 1460 1461 1463 1464 1465 1466 1466 1466 1466 1466 1466
1445 1449 1453 1454 1456 1457 1460 1462 1463 1463 1463 1464 1465 1466 1467 1468 1469 1468 1468 1468 1468 1468 1467 1467 1466 1466 1465 1464 1464 1463 1461 1459 1458 1459 1461 1463 1465 1465 1466 1468 1468 1467 1467